When you browse on this site, cookies collect data to enhance your experience and personalize the content and advertising you see.
Visit our Privacy Policy to learn more. By continuing to use the site, you agree to this use of cookies and data.
  • en Suisse
  • Liste des pays
  • À 7 jours
  • Température de l'eau
  • Carte météo
  • Widgets météo
  • user-avatar
    Se connecter

    Météo par heure à Chamonix

    Ce jour, 20 Novembre, Mercredi

    Heure Température Précipitation Vent Pression Humidité
    00:00 -2°C° 0 mm 2 m/s 648 mmHg 89%
    01:00 -2°C° 0 mm 2 m/s 648 mmHg 89%
    02:00 -2°C° 0 mm 2 m/s 648 mmHg 89%
    03:00 -2°C° 0 mm 2 m/s 648 mmHg 89%
    04:00 -2°C° 0 mm 2 m/s 648 mmHg 89%
    05:00 -2°C° 0 mm 2 m/s 648 mmHg 89%
    06:00 -2°C° 0 mm 2 m/s 648 mmHg 88%
    07:00 +1°C° 0 mm 2 m/s 648 mmHg 88%
    08:00 +3°C° 0 mm 1 m/s 648 mmHg 88%
    09:00 +4°C° 0 mm 1 m/s 649 mmHg 88%
    10:00 +5°C° 0 mm 1 m/s 648 mmHg 88%
    11:00 +6°C° 0 mm 1 m/s 648 mmHg 88%
    12:00 +7°C° 0 mm 1 m/s 648 mmHg 88%
    13:00 +6°C° 0 mm 1 m/s 648 mmHg 90%
    14:00 +5°C° 0 mm 1 m/s 647 mmHg 91%
    15:00 +4°C° 0 mm 0 m/s 647 mmHg 93%
    16:00 +4°C° 0 mm 1 m/s 647 mmHg 92%
    17:00 +3°C° 0 mm 1 m/s 646 mmHg 90%
    18:00 +1°C° 0 mm 2 m/s 646 mmHg 89%
    19:00 +1°C° 0 mm 2 m/s 646 mmHg 89%
    20:00 -1°C° 0 mm 2 m/s 646 mmHg 89%
    21:00 -1°C° 0 mm 2 m/s 646 mmHg 89%
    22:00 -1°C° 0 mm 2 m/s 646 mmHg 89%
    23:00 -1°C° 0 mm 2 m/s 646 mmHg 89%

    Demain, 21 Novembre, Jeudi

    Heure Température Précipitation Vent Pression Humidité
    00:00 -1°C° 0 mm 2 m/s 646 mmHg 88%
    01:00 -1°C° 0 mm 2 m/s 646 mmHg 88%
    02:00 +1°C° 0 mm 1 m/s 645 mmHg 88%
    03:00 +1°C° 0 mm 1 m/s 645 mmHg 89%
    04:00 +1°C° 0 mm 1 m/s 645 mmHg 88%
    05:00 +1°C° 0 mm 1 m/s 645 mmHg 88%
    06:00 -1°C° 0 mm 2 m/s 645 mmHg 88%
    07:00 +2°C° 0 mm 1 m/s 645 mmHg 88%
    08:00 +3°C° 0 mm 1 m/s 646 mmHg 87%
    09:00 +4°C° 0 mm 1 m/s 646 mmHg 86%
    10:00 +5°C° 0.1 mm 1 m/s 646 mmHg 86%
    11:00 +5°C° 0.1 mm 1 m/s 646 mmHg 85%
    12:00 +6°C° 0.1 mm 1 m/s 646 mmHg 85%
    13:00 +5°C° 0.1 mm 1 m/s 645 mmHg 87%
    14:00 +4°C° 0.1 mm 1 m/s 645 mmHg 89%
    15:00 +4°C° 0.1 mm 1 m/s 645 mmHg 92%
    16:00 +3°C° 0 mm 1 m/s 645 mmHg 91%
    17:00 +1°C° 0 mm 2 m/s 644 mmHg 90%
    18:00 -1°C° 0 mm 2 m/s 644 mmHg 90%
    19:00 -1°C° 0.1 mm 2 m/s 645 mmHg 89%
    20:00 -1°C° 0.1 mm 2 m/s 645 mmHg 89%
    21:00 -1°C° 0.1 mm 2 m/s 645 mmHg 89%
    22:00 -1°C° 0.1 mm 2 m/s 645 mmHg 88%
    23:00 -1°C° 0.1 mm 2 m/s 645 mmHg 88%

    Après-demain, 22 Novembre, Vendredi

    Heure Température Précipitation Vent Pression Humidité
    00:00 -2°C° 0.1 mm 2 m/s 645 mmHg 88%
    01:00 -2°C° 0.1 mm 2 m/s 645 mmHg 88%
    02:00 -2°C° 0.1 mm 2 m/s 644 mmHg 88%
    03:00 -2°C° 0.1 mm 2 m/s 644 mmHg 88%
    04:00 -2°C° 0 mm 2 m/s 644 mmHg 88%
    05:00 -2°C° 0 mm 2 m/s 644 mmHg 87%
    06:00 -2°C° 0 mm 2 m/s 644 mmHg 87%
    07:00 -1°C° 0 mm 2 m/s 645 mmHg 86%
    08:00 +1°C° 0 mm 2 m/s 645 mmHg 86%
    09:00 +2°C° 0 mm 2 m/s 645 mmHg 85%
    10:00 +3°C° 0 mm 2 m/s 645 mmHg 84%
    11:00 +4°C° 0 mm 2 m/s 645 mmHg 83%
    12:00 +5°C° 0 mm 2 m/s 645 mmHg 82%
    13:00 +3°C° 0 mm 3 m/s 644 mmHg 83%
    14:00 +3°C° 0 mm 3 m/s 644 mmHg 85%
    15:00 +2°C° 0 mm 3 m/s 643 mmHg 86%
    16:00 +1°C° 0.1 mm 3 m/s 643 mmHg 86%
    17:00 +1°C° 0.1 mm 3 m/s 643 mmHg 86%
    18:00 -1°C° 0.1 mm 4 m/s 642 mmHg 86%
    19:00 -1°C° 0.1 mm 4 m/s 642 mmHg 85%
    20:00 -1°C° 0.1 mm 4 m/s 642 mmHg 85%
    21:00 -1°C° 0.1 mm 4 m/s 641 mmHg 84%
    22:00 -1°C° 0.1 mm 4 m/s 641 mmHg 84%
    23:00 -1°C° 0.1 mm 4 m/s 641 mmHg 85%

    23 Novembre, Samedi

    Heure Température Précipitation Vent Pression Humidité
    00:00 -1°C° 0.1 mm 4 m/s 640 mmHg 85%
    01:00 -1°C° 0.1 mm 4 m/s 640 mmHg 85%
    02:00 -1°C° 0.1 mm 4 m/s 639 mmHg 85%
    03:00 -1°C° 0.1 mm 4 m/s 639 mmHg 85%
    04:00 -1°C° 0.2 mm 4 m/s 639 mmHg 85%
    05:00 -1°C° 0.2 mm 4 m/s 639 mmHg 85%
    06:00 -1°C° 0.2 mm 4 m/s 639 mmHg 86%
    07:00 0°C° 0.2 mm 4 m/s 639 mmHg 85%
    08:00 +1°C° 0.2 mm 4 m/s 639 mmHg 84%
    09:00 +3°C° 0.2 mm 4 m/s 640 mmHg 84%
    10:00 +4°C° 0.3 mm 4 m/s 640 mmHg 84%
    11:00 +5°C° 0.3 mm 3 m/s 640 mmHg 84%
    12:00 +7°C° 0.3 mm 3 m/s 641 mmHg 83%
    13:00 +5°C° 0.4 mm 3 m/s 641 mmHg 85%
    14:00 +4°C° 0.4 mm 3 m/s 641 mmHg 87%
    15:00 +3°C° 0.4 mm 3 m/s 641 mmHg 89%
    16:00 +3°C° 0.4 mm 3 m/s 641 mmHg 89%
    17:00 +2°C° 0.4 mm 3 m/s 641 mmHg 89%
    18:00 +1°C° 0.4 mm 3 m/s 641 mmHg 89%
    19:00 +1°C° 0.5 mm 3 m/s 641 mmHg 89%
    20:00 +1°C° 0.5 mm 3 m/s 642 mmHg 89%
    21:00 +1°C° 0.5 mm 3 m/s 642 mmHg 89%
    22:00 +2°C° 0.9 mm 2 m/s 642 mmHg 90%
    23:00 +2°C° 0.9 mm 2 m/s 643 mmHg 91%

    24 Novembre, Dimanche

    Heure Température Précipitation Vent Pression Humidité
    00:00 +2°C° 0.9 mm 2 m/s 643 mmHg 92%
    01:00 +2°C° 0.8 mm 2 m/s 643 mmHg 92%
    02:00 +2°C° 0.8 mm 2 m/s 643 mmHg 92%
    03:00 +2°C° 0.8 mm 2 m/s 643 mmHg 91%
    04:00 +2°C° 0.8 mm 2 m/s 643 mmHg 91%
    05:00 +2°C° 0.8 mm 2 m/s 644 mmHg 91%
    06:00 +2°C° 0.8 mm 2 m/s 644 mmHg 91%
    07:00 +3°C° 0.3 mm 2 m/s 645 mmHg 90%
    08:00 +4°C° 0.3 mm 2 m/s 646 mmHg 89%
    09:00 +5°C° 0.3 mm 2 m/s 647 mmHg 88%
    10:00 +5°C° 0.1 mm 2 m/s 647 mmHg 88%
    11:00 +6°C° 0.1 mm 2 m/s 648 mmHg 88%
    12:00 +8°C° 0.1 mm 1 m/s 648 mmHg 87%
    13:00 +7°C° 0.1 mm 1 m/s 648 mmHg 89%
    14:00 +7°C° 0.1 mm 1 m/s 648 mmHg 90%
    15:00 +6°C° 0.1 mm 1 m/s 648 mmHg 91%
    16:00 +5°C° 0 mm 1 m/s 648 mmHg 91%
    17:00 +4°C° 0 mm 1 m/s 648 mmHg 90%
    18:00 +3°C° 0 mm 1 m/s 648 mmHg 90%
    19:00 +3°C° 0 mm 1 m/s 649 mmHg 89%
    20:00 +3°C° 0 mm 1 m/s 649 mmHg 88%
    21:00 +2°C° 0 mm 1 m/s 649 mmHg 87%
    22:00 +2°C° 0 mm 1 m/s 649 mmHg 85%
    23:00 +2°C° 0 mm 1 m/s 649 mmHg 83%

    25 Novembre, Lundi

    Heure Température Précipitation Vent Pression Humidité
    00:00 +2°C° 0 mm 1 m/s 649 mmHg 81%
    01:00 +2°C° 0 mm 1 m/s 649 mmHg 79%
    02:00 +2°C° 0 mm 1 m/s 649 mmHg 78%
    03:00 +2°C° 0 mm 1 m/s 649 mmHg 77%
    04:00 +2°C° 0 mm 1 m/s 649 mmHg 76%
    05:00 +2°C° 0 mm 1 m/s 649 mmHg 75%
    06:00 +2°C° 0 mm 1 m/s 649 mmHg 75%
    07:00 +4°C° 0 mm 1 m/s 649 mmHg 75%
    08:00 +4°C° 0 mm 0 m/s 650 mmHg 76%
    09:00 +5°C° 0 mm 0 m/s 651 mmHg 77%
    10:00 +6°C° 0 mm 0 m/s 651 mmHg 80%
    11:00 +7°C° 0 mm 0 m/s 651 mmHg 83%
    12:00 +7°C° 0 mm 0 m/s 650 mmHg 86%
    13:00 +6°C° 0 mm 0 m/s 650 mmHg 85%
    14:00 +6°C° 0 mm 0 m/s 650 mmHg 84%
    15:00 +5°C° 0 mm 0 m/s 650 mmHg 84%
    16:00 +4°C° 0 mm 0 m/s 650 mmHg 83%
    17:00 +4°C° 0 mm 1 m/s 650 mmHg 81%
    18:00 +3°C° 0 mm 1 m/s 649 mmHg 80%
    19:00 +3°C° 0 mm 1 m/s 649 mmHg 78%
    20:00 +3°C° 0 mm 1 m/s 650 mmHg 77%
    21:00 +3°C° 0 mm 1 m/s 650 mmHg 76%
    22:00 +3°C° 0 mm 1 m/s 650 mmHg 76%
    23:00 +3°C° 0 mm 1 m/s 649 mmHg 77%
    Voir plus